Home   Weather   Strathcona County   Past weeks

Flag for Canada Past Weather in Strathcona County, Alberta, Canada — Yesterday and Last 2 Weeks

Now
22 °F

Cold.


Feels Like: 14 °F
Forecast: 17 / 23 °F
Wind: 6 mph from North

Location: Edmonton Municipal

Current Time: Jan 21, 2017 at 11:22:43 pm

Latest Report: Jan 21, 2017 at 10:00 pm


Visibility: N/A

Pressure: 29.92 "Hg (27.27 "Hg at 728m altitude)

Humidity: 97%

Dew Point: 21 °F

Location of Strathcona CountyLocation

Past Weather in Strathcona County — Graph

°F

Strathcona County Temperature Yesterday

Maximum temperature yesterday: 43 °F (at 1:00 pm)
Minimum temperature yesterday: 21 °F (at 9:00 am)
Average temperature yesterday: 29 °F

High & Low Weather Summary for the Past Weeks

 TemperatureHumidityPressure
High46 °F (Jan 18, 12:00 pm)99% (Jan 21, 3:00 am)30.51 "Hg (Jan 21, 3:00 am)
Low-14 °F (Jan 10, 11:00 pm)40% (Jan 20, 1:00 pm)29.19 "Hg (Jan 19, 3:00 pm)
Average17 °F75%29.84 "Hg
* Reported Jan 6 10:00 pm — Jan 21 10:00 pm, Strathcona County, Weather by CustomWeather, © 2017

Note: Actual official high and low records may vary slightly from our data, if they occured in-between our weather recording intervals... More about our weather records

Advertising

Strathcona County Weather History for the Previous 24 Hours

Scroll right to see more
 ConditionsComfort  
Time TempWeatherWind HumidityBarometerVisibility
10:00 pm
Sat, Jan 21
22 °FCold.6 mph97%29.92 "HgN/A
9:00 pm22 °FCold.5 mph97%29.91 "HgN/A
8:00 pm22 °FCold.7 mph97%29.89 "HgN/A
7:00 pm21 °FCold.8 mph98%29.87 "HgN/A
6:00 pm23 °FCold.7 mph98%29.83 "HgN/A
5:00 pm22 °FCold.7 mph98%29.81 "HgN/A
4:00 pm22 °FCold.5 mph98%29.78 "HgN/A
3:00 pm22 °FCold.5 mph98%29.74 "HgN/A
2:00 pm20 °FCold.2 mph96%29.72 "HgN/A
1:00 pm19 °FCold.3 mph96%29.69 "HgN/A
12:00 pm18 °FCold.3 mph96%29.67 "HgN/A
11:00 am20 °FCold.2 mph96%29.64 "HgN/A
10:00 am20 °FCold.1 mph97%29.62 "HgN/A
9:00 am18 °FCold.1 mph97%29.60 "HgN/A
8:00 am16 °FCold.2 mph97%29.57 "HgN/A
7:00 am15 °FCold.1 mph97%29.55 "HgN/A
6:00 am19 °FCold.2 mph97%29.51 "HgN/A
5:00 am19 °FCold.No wind97%29.50 "HgN/A
4:00 am20 °FCold.2 mph98%29.48 "HgN/A
3:00 am21 °FCold.5 mph99%29.47 "HgN/A
2:00 am21 °FCold.2 mph96%29.46 "HgN/A
1:00 am24 °FCold.1 mph89%29.44 "HgN/A
12:00 am22 °FCold.1 mph96%29.44 "HgN/A
11:00 pm
Fri, Jan 20
25 °FChilly.1 mph91%29.44 "HgN/A
Weather by CustomWeather, © 2017

See weather overviewHow to use our weather pages